User: anonymous   Login
Location: Caltech
(34.1382°N, 118.1253°W)
Time: 04:08:01
(UTC-07:00)
Language:

Cosmos 1975 - Orbit

View from above orbital plane
View from above orbital plane
View from above satellite
View from above satellite

Ground track
Ground track

The orbit data is extracted from the following two-line orbital elements,

1 19573U 88093A   14304.12401135  .00004160  00000-0  32258-3 0  3552
2 19573 082.5247 192.8888 0014470 329.3693 030.6685 15.01087747415581
Epoch (UTC): 31 October 2014 02:58:34
Eccentricity: 0.0014470
inclination: 82.5247°
perigee height: 553 km
apogee height: 573 km
right ascension of ascending node: 192.8888°
argument of perigee: 329.3693°
revolutions per day: 15.01087747
mean anomaly at epoch: 30.6685°
orbit number at epoch: 41558

The dashed part of the orbit path shows where the satellite is in the earth's shadow,  

DLR